Location: Lamothe
(43.8635°N, 0.5567°E)
Time: 12:03:09
(UTC+00:00)

Daily predictions for brighter satellites

Satellite Brightness Start Highest point End
(mag) Time Altitude Azimuth Time Altitude Azimuth Time Altitude Azimuth
STARLINK-1102 3.7 20:05:10 10° NW 20:09:20 76° NE 20:13:27 10° ESE
NOSS 2-2 (D) 3.1 20:06:12 10° SSW 20:09:42 57° ESE 20:13:28 10° NE
Aureole 2 Rocket 2.0 20:07:18 10° SSW 20:10:22 87° ESE 20:13:18 10° NNE
CZ-2C R/B 2.8 20:04:52 10° NNE 20:10:32 81° ESE 20:16:07 10° S
ARGOS 4.3 20:06:07 10° S 20:11:13 44° W 20:16:23 10° NNW
Cosmos 1331 Rocket 4.3 20:06:37 10° S 20:11:31 46° ESE 20:16:29 10° NNE
STARLINK-1111 3.7 20:10:09 10° NW 20:14:19 82° NE 20:18:27 10° ESE
STARLINK-52 4.2 20:14:34 10° S 20:17:07 22° SE 20:19:41 10° E
STARLINK-1073 3.6 20:15:07 10° NW 20:19:17 88° NE 20:23:25 10° SE
SL-4 R/B 2.5 20:14:50 10° SW 20:19:19 51° SE 20:24:00 10° ENE
Cosmos 1943 Rocket 2.7 20:14:28 10° S 20:19:30 37° ESE 20:24:36 10° NE
Okean 2 Rocket 3.5 20:15:13 10° NNW 20:19:35 64° W 20:23:54 10° S
SPOT 3 Rocket 3.7 20:16:22 10° S 20:21:30 76° WSW 20:26:42 10° NNW
Terra 3.9 20:21:18 10° E 20:23:26 13° ENE 20:25:34 10° NNE
STARLINK-1121 3.6 20:20:04 10° NW 20:24:13 86° SW 20:28:16 11° SE
Nadezhda 4 Rocket 4.3 20:19:09 10° SSE 20:24:57 47° E 20:30:46 10° NNE
NOSS 2-2 (E) 3.4 20:22:31 10° SW 20:26:02 73° NW 20:30:00 10° NE
OE (NEXTSAT) 4.3 20:22:49 10° WSW 20:26:17 65° SSE 20:29:47 10° ENE
Cosmos 304 Rocket 3.9 20:21:52 10° SSW 20:26:39 83° WNW 20:31:29 10° NNE
H-2A R/B 4.2 20:24:38 10° SW 20:28:44 24° W 20:32:57 10° NW
STARLINK-1106 3.6 20:25:05 10° WNW 20:29:14 80° SW 20:33:05 12° SE
FALCON 9 DEB 4.5 20:27:01 10° S 20:29:32 19° SE 20:32:04 10° E
Cosmos 1833 Rocket 4.5 20:25:12 10° NW 20:29:52 28° WSW 20:34:32 10° SSW
Resurs 01 Rocket 1.6 20:25:27 10° SSE 20:29:54 86° E 20:34:23 10° NNW
USA 245 3.8 20:28:14 12° ESE 20:30:04 21° ENE 20:32:00 10° NNE
ATLAS CENTAUR R/B 3.3 20:28:18 10° SE 20:30:18 13° ESE 20:32:22 10° E
Cosmos 1300 Rocket 4.3 20:26:19 10° NNW 20:30:40 56° W 20:34:59 10° S
Cosmos 1437 Rocket 3.0 20:28:10 10° SSW 20:31:57 72° WNW 20:35:48 10° N
SL-27 R/B 4.2 20:31:13 10° N 20:34:00 21° ENE 20:36:32 11° ESE
STARLINK-1112 3.7 20:30:04 10° WNW 20:34:12 73° SW 20:37:52 13° SE
Cosmos 2279 Rocket 4.3 20:29:02 10° NNW 20:35:15 73° W 20:41:25 10° S
Cosmos 2151 Rocket 4.1 20:30:50 10° NNW 20:35:20 64° W 20:39:48 10° S
STARLINK-1128 3.7 20:35:02 10° WNW 20:39:10 67° SW 20:42:38 14° SE
Cosmos 2297 4.2 20:37:11 10° SW 20:42:49 67° WNW 20:48:32 10° NNE
STARLINK-1113 3.8 20:40:03 10° WNW 20:44:09 61° SW 20:47:26 15° SE
Cosmos 2082 Rocket 3.6 20:40:28 10° NW 20:45:34 34° WSW 20:50:37 10° SSW
STARLINK-60 3.1 20:42:25 10° WSW 20:45:35 77° NNW 20:48:45 10° NE
STARLINK-1119 3.9 20:45:02 10° WNW 20:49:06 56° SW 20:52:12 16° SE
Cosmos 1242 Rocket 4.3 20:48:44 14° ESE 20:50:04 17° E 20:52:31 10° NE
Cosmos 2369 Rocket 2.4 20:45:33 10° S 20:50:58 48° ESE 20:56:22 10° NE
BREEZE-M DEB 2.1 20:48:55 10° SW 20:51:06 64° SSE 20:55:16 10° ENE
NOSS 2-2 (C) 4.1 20:48:16 10° SW 20:51:44 50° NW 20:55:35 10° NNE
Cosmos 1674 Rocket 4.1 20:48:06 10° SSW 20:52:25 60° W 20:56:49 10° N
Cosmos 1378 Rocket 3.7 20:48:17 10° S 20:52:41 79° W 20:57:04 10° N
Abrixas rocket 3.7 20:50:23 10° W 20:52:44 22° SW 20:54:17 15° S
Cosmos 1766 3.7 20:48:57 10° N 20:52:50 46° ENE 20:55:36 17° SSE
ATLAS 3B CENTAUR R/B 4.4 20:37:11 10° WSW 20:53:07 37° SSW 21:00:02 15° SE
STARLINK-1114 4.1 20:50:03 10° WNW 20:54:05 51° SW 20:57:00 17° SSE
MetOp-B 4.2 20:49:20 10° SSE 20:54:36 90° SSE 20:59:59 10° NNW
Meteor 1-15 Rocket 4.5 20:50:52 10° NNW 20:56:48 76° W 21:02:38 10° S
ATLAS 2AS CENTAUR R/B 3.4 20:49:45 10° S 20:57:07 44° ESE 21:04:33 10° NE
STARLINK-1130 (DARKSAT) 4.2 20:55:03 10° WNW 20:59:02 47° SW 21:01:46 18° SSE
NOSS 3-2 (A) 4.1 20:52:04 10° NW 20:59:41 84° NE 21:06:43 16° SE
STARLINK-1212 4.4 20:57:08 10° NW 20:59:58 31° NNE 21:02:33 11° E
STARLINK-1105 4.4 20:57:37 10° NW 21:00:28 31° NNE 21:03:01 12° E
STARLINK-1247 4.4 20:58:27 10° NW 21:01:19 31° NNE 21:03:52 12° E
Cosmos 292 Rocket 4.3 20:57:16 12° S 21:01:28 41° ESE 21:06:02 10° NE
STARLINK-1227 4.4 20:58:57 10° NW 21:01:48 31° NNE 21:04:18 12° E
SL-8 R/B 4.1 20:57:23 10° WNW 21:02:03 51° SSW 21:05:16 19° SE
STARLINK-1226 4.3 20:59:58 10° NW 21:02:50 32° NNE 21:05:20 12° E
ERS-1 Rocket 3.5 20:59:14 17° SE 21:02:52 46° ENE 21:07:41 10° N
STARLINK-1215 4.3 21:00:43 10° NW 21:03:35 32° NNE 21:06:03 13° E
STARLINK-1084 4.3 21:00:03 10° WNW 21:03:59 43° SW 21:06:33 19° SSE
STARLINK-1229 4.3 21:01:32 10° NW 21:04:16 31° NNE 21:06:32 13° E
STARLINK-1270 4.3 21:02:21 10° NW 21:05:06 31° NNE 21:07:19 13° E
STARLINK-1209 3.8 21:02:17 10° NW 21:05:16 41° NNE 21:07:22 17° E
BREEZE-M DEB (TANK) 4.1 20:49:44 10° WNW 21:05:22 83° NNE 21:09:24 16° ESE
STARLINK-1217 4.3 21:02:34 10° NW 21:05:28 33° NNE 21:07:50 13° E
STARLINK-1189 4.2 21:04:38 10° NW 21:07:25 33° NNE 21:09:34 14° E
STARLINK-1188 4.2 21:06:01 10° NW 21:08:51 34° NNE 21:10:59 15° E
STARLINK-1098 4.4 21:05:03 10° WNW 21:08:56 39° SW 21:11:19 20° SSE
STARLINK-1191 4.1 21:09:15 10° NW 21:12:08 36° NNE 21:14:11 16° E
STARLINK-1444 3.1 21:10:24 10° WSW 21:12:18 42° NNW 21:14:14 10° NE
STARLINK-1452 3.1 21:10:26 10° WSW 21:12:19 41° NNW 21:14:13 10° NE
STARLINK-1221 4.1 21:10:14 10° NW 21:13:08 36° NNE 21:15:08 17° E
STARLINK-1436 (VISORSAT) 3.2 21:12:11 10° WSW 21:14:03 39° NNW 21:15:57 10° NE
USA 238 DEB 3.9 21:06:49 10° NW 21:14:05 84° SW 21:19:44 19° SSE
STARLINK-1450 3.2 21:12:16 10° WSW 21:14:09 39° NNW 21:16:03 10° NE
STARLINK-1222 4.0 21:11:15 10° NW 21:14:09 37° NNE 21:16:07 17° E
USA 238 3.9 21:06:55 10° NW 21:14:11 84° SW 21:19:50 19° SSE
STARLINK-1392 3.2 21:12:22 10° WSW 21:14:15 39° NNW 21:16:09 10° NE
STARLINK-1398 3.2 21:12:22 10° WSW 21:14:15 39° NNW 21:16:09 10° NE
STARLINK-1399 3.2 21:12:22 10° WSW 21:14:15 39° NNW 21:16:09 10° NE
STARLINK-1394 3.2 21:12:23 10° WSW 21:14:16 39° NNW 21:16:10 10° NE
STARLINK-1415 3.2 21:12:23 10° WSW 21:14:16 39° NNW 21:16:10 10° NE
STARLINK-1414 3.2 21:12:23 10° WSW 21:14:16 39° NNW 21:16:11 10° NE
STARLINK-1393 3.2 21:12:23 10° WSW 21:14:16 39° NNW 21:16:10 10° NE
STARLINK-1395 3.2 21:12:23 10° WSW 21:14:16 39° NNW 21:16:10 10° NE
STARLINK-1396 3.2 21:12:24 10° WSW 21:14:17 39° NNW 21:16:11 10° NE
STARLINK-1397 3.2 21:12:24 10° WSW 21:14:17 39° NNW 21:16:11 10° NE
STARLINK-1416 3.2 21:12:24 10° WSW 21:14:17 39° NNW 21:16:11 10° NE
STARLINK-1404 3.2 21:12:24 10° WSW 21:14:17 39° NNW 21:16:12 10° NE
STARLINK-1401 3.2 21:12:25 10° WSW 21:14:17 39° NNW 21:16:12 10° NE
STARLINK-1419 3.2 21:12:25 10° WSW 21:14:18 39° NNW 21:16:12 10° NE
STARLINK-1408 3.2 21:12:26 10° WSW 21:14:18 39° NNW 21:16:13 10° NE
STARLINK-1453 3.2 21:12:26 10° WSW 21:14:19 39° NNW 21:16:13 10° NE
STARLINK-1437 3.2 21:12:26 10° WSW 21:14:19 39° NNW 21:16:13 10° NE
STARLINK-1417 3.2 21:12:27 10° WSW 21:14:19 39° NNW 21:16:13 10° NE
STARLINK-1402 3.2 21:12:27 10° WSW 21:14:19 39° NNW 21:16:14 10° NE
STARLINK-1420 3.2 21:12:27 10° WSW 21:14:20 39° NNW 21:16:14 10° NE
STARLINK-1413 3.2 21:12:27 10° WSW 21:14:21 39° NNW 21:16:15 10° NE
STARLINK-1458 3.2 21:12:27 10° WSW 21:14:21 39° NNW 21:16:15 10° NE
STARLINK-1406 3.2 21:12:27 10° WSW 21:14:21 39° NNW 21:16:15 10° NE
STARLINK-1460 3.2 21:12:28 10° WSW 21:14:21 39° NNW 21:16:15 10° NE
STARLINK-1422 3.2 21:12:28 10° WSW 21:14:21 39° NNW 21:16:16 10° NE
STARLINK-1440 3.2 21:12:29 10° WSW 21:14:22 39° NNW 21:16:16 10° NE
STARLINK-1445 3.2 21:12:29 10° WSW 21:14:23 39° NNW 21:16:17 10° NE
STARLINK-1446 3.2 21:12:31 10° WSW 21:14:23 39° NNW 21:16:18 10° NE
STARLINK-1443 3.2 21:12:30 10° WSW 21:14:24 39° NNW 21:16:18 10° NE
STARLINK-1454 3.2 21:12:31 10° WSW 21:14:24 39° NNW 21:16:19 10° NE
STARLINK-1456 3.2 21:12:32 10° WSW 21:14:25 39° NNW 21:16:19 10° NE
STARLINK-1457 3.2 21:12:32 10° WSW 21:14:25 39° NNW 21:16:19 10° NE
STARLINK-1447 3.2 21:12:33 10° WSW 21:14:26 39° NNW 21:16:20 10° NE
STARLINK-1451 3.2 21:12:32 10° WSW 21:14:26 39° NNW 21:16:20 10° NE
STARLINK-1455 3.2 21:12:33 10° WSW 21:14:26 39° NNW 21:16:21 10° NE
STARLINK-1442 3.2 21:12:34 10° WSW 21:14:27 39° NNW 21:16:21 10° NE
STARLINK-1449 3.2 21:12:34 10° WSW 21:14:27 39° NNW 21:16:21 10° NE
STARLINK-1448 3.2 21:12:34 10° WSW 21:14:27 39° NNW 21:16:21 10° NE
STARLINK-1441 3.2 21:12:34 10° WSW 21:14:27 39° NNW 21:16:22 10° NE
STARLINK-1405 3.2 21:12:36 10° WSW 21:14:29 39° NNW 21:16:23 10° NE
STARLINK-1423 3.2 21:12:36 10° WSW 21:14:29 39° NNW 21:16:23 10° NE
STARLINK-1421 3.2 21:12:36 10° WSW 21:14:29 39° NNW 21:16:23 10° NE
STARLINK-1410 3.2 21:12:36 10° WSW 21:14:29 39° NNW 21:16:23 10° NE
STARLINK-1407 3.2 21:12:36 10° WSW 21:14:29 39° NNW 21:16:23 10° NE
STARLINK-1400 3.2 21:12:36 10° WSW 21:14:29 39° NNW 21:16:24 10° NE
STARLINK-1439 3.2 21:12:37 10° WSW 21:14:30 39° NNW 21:16:24 10° NE
STARLINK-1409 3.2 21:12:38 10° WSW 21:14:31 39° NNW 21:16:25 10° NE
STARLINK-1351 3.2 21:12:38 10° WSW 21:14:31 39° NNW 21:16:25 10° NE
STARLINK-1434 3.2 21:12:38 10° WSW 21:14:31 39° NNW 21:16:26 10° NE
STARLINK-1418 3.2 21:12:39 10° WSW 21:14:31 39° NNW 21:16:26 10° NE
STARLINK-1370 3.2 21:12:39 10° WSW 21:14:32 39° NNW 21:16:26 10° NE
STARLINK-1403 3.2 21:12:39 10° WSW 21:14:33 39° NNW 21:16:27 10° NE
STARLINK-1433 3.2 21:12:40 10° WSW 21:14:33 39° NNW 21:16:27 10° NE
STARLINK-1411 3.2 21:12:42 10° WSW 21:14:35 39° NNW 21:16:29 10° NE
STARLINK-1438 3.2 21:12:42 10° WSW 21:14:35 39° NNW 21:16:29 10° NE
STARLINK-1412 3.2 21:12:42 10° WSW 21:14:35 39° NNW 21:16:29 10° NE
Cosmos 968 Rocket 4.1 21:09:46 10° N 21:14:40 43° ENE 21:17:48 20° SE
Cosmos 1092 Rocket 3.9 21:08:42 10° S 21:14:45 73° E 21:20:54 10° NNE
STARLINK-1214 4.0 21:12:24 10° NW 21:15:19 38° NNE 21:17:14 18° E
Landsat 7 3.8 21:11:34 17° S 21:15:19 83° WSW 21:20:06 10° NNW
Cosmos 1975 Rocket 3.1 21:14:16 17° S 21:17:34 65° E 21:21:55 10° NNE
STARLINK-29 3.0 21:14:20 10° WSW 21:17:34 82° NNW 21:20:48 10° NE
Cosmos 1025 Rocket 4.4 21:17:46 19° ESE 21:19:02 22° E 21:22:23 10° NE
STARLINK-1234 3.6 21:16:05 10° NW 21:19:29 54° NNE 21:21:28 22° E
STARLINK-1228 3.7 21:16:58 10° NW 21:20:28 56° NNE 21:22:31 22° ESE
Cosmos 1378 3.8 21:19:34 10° SSW 21:23:11 52° W 21:26:49 10° N
COSMOS 2455 3.5 21:21:21 19° SSE 21:24:49 35° ESE 21:30:12 10° NE
Cosmos 2195 Rocket 4.5 21:19:52 13° S 21:25:35 76° E 21:31:50 10° N
Cosmos 1805 3.7 21:22:35 10° NNW 21:26:28 58° W 21:29:06 19° S
BREEZE-M DEB (TANK) 4.3 21:05:58 10° WSW 21:26:48 80° NNW 21:31:26 10° ENE
STARLINK-1377 4.3 21:28:58 30° SE 21:28:58 30° SE 21:32:16 10° ENE
STARLINK-1187 3.4 21:26:16 10° NW 21:29:26 55° NNE 21:30:51 28° E
Cosmos 1470 3.5 21:27:55 10° N 21:31:33 37° ENE 21:32:50 28° ESE
STARLINK-1353 4.1 21:32:52 32° SE 21:32:55 32° SE 21:36:27 10° ENE
Meteor 1-22 Rocket 4.3 21:28:27 10° NNW 21:34:16 78° W 21:38:09 20° S
STARLINK-1375 4.1 21:35:42 33° SE 21:35:42 33° SE 21:38:58 10° ENE
Cosmos 1726 4.0 21:33:51 10° NNE 21:36:22 17° ENE 21:37:13 16° E
Spot 2 Rocket 4.4 21:34:57 14° SSW 21:39:00 43° W 21:43:50 10° NNW
STARLINK-1326 4.5 21:42:09 22° ENE 21:42:09 22° ENE 21:43:29 10° ENE
STARLINK-1323 4.5 21:42:27 22° ENE 21:42:27 22° ENE 21:43:49 10° ENE
STARLINK-1350 3.9 21:40:46 36° SSE 21:41:09 38° SE 21:44:49 10° ENE
STARLINK-1349 4.5 21:42:47 22° ENE 21:42:47 22° ENE 21:44:09 10° ENE
Cosmos 1733 3.6 21:37:29 10° NNW 21:41:14 58° W 21:43:09 26° SSW
STARLINK-1336 4.5 21:43:06 23° ENE 21:43:06 23° ENE 21:44:30 10° ENE
STARLINK-1331 4.4 21:43:26 23° ENE 21:43:26 23° ENE 21:44:51 10° ENE
STARLINK-1344 4.4 21:43:45 23° ENE 21:43:45 23° ENE 21:45:10 10° ENE
Cosmos 1842 3.3 21:39:48 22° SSW 21:42:12 74° W 21:46:06 10° N
STARLINK-1343 4.4 21:44:05 23° ENE 21:44:05 23° ENE 21:45:31 10° ENE
STARLINK-1346 4.3 21:44:17 25° E 21:44:17 25° E 21:45:52 10° ENE
STARLINK-1328 4.4 21:44:43 24° ENE 21:44:43 24° ENE 21:46:11 10° ENE
STARLINK-1354 4.4 21:45:05 24° ENE 21:45:05 24° ENE 21:46:33 10° ENE
STARLINK-1347 4.4 21:45:23 24° ENE 21:45:23 24° ENE 21:46:52 10° ENE
STARLINK-1357 4.3 21:45:44 24° ENE 21:45:44 24° ENE 21:47:14 10° ENE
RESURS DK-1 4.1 21:45:05 18° E 21:45:05 18° E 21:47:20 10° ENE
STARLINK-1335 4.3 21:46:00 25° ENE 21:46:00 25° ENE 21:47:31 10° ENE
STARLINK-1327 4.3 21:46:23 25° ENE 21:46:23 25° ENE 21:47:55 10° ENE
STARLINK-1340 4.3 21:46:43 25° ENE 21:46:43 25° ENE 21:48:15 10° ENE
STARLINK-1352 3.8 21:44:45 38° SSE 21:45:20 41° SE 21:49:04 10° ENE
STARLINK-1356 4.3 21:47:02 25° ENE 21:47:02 25° ENE 21:48:35 10° ENE
STARLINK-1345 4.3 21:47:22 25° ENE 21:47:22 25° ENE 21:48:56 10° ENE
STARLINK-1355 4.3 21:47:39 26° ENE 21:47:39 26° ENE 21:49:15 10° ENE
STARLINK-1321 4.3 21:48:00 26° ENE 21:48:00 26° ENE 21:49:35 10° ENE
STARLINK-1358 4.2 21:48:20 26° ENE 21:48:20 26° ENE 21:49:58 10° ENE
STARLINK-1332 4.2 21:48:38 26° ENE 21:48:38 26° ENE 21:50:16 10° ENE
STARLINK-1348 4.2 21:48:58 27° ENE 21:48:58 27° ENE 21:50:36 10° ENE
Cosmos 1455 Rocket 3.0 21:43:21 10° N 21:47:43 83° W 21:49:41 32° S
STARLINK-1330 4.2 21:49:18 27° ENE 21:49:18 27° ENE 21:50:56 10° ENE
STARLINK-1363 4.2 21:49:37 27° ENE 21:49:37 27° ENE 21:51:17 10° ENE
STARLINK-1337 4.2 21:49:57 27° ENE 21:49:57 27° ENE 21:51:38 10° ENE
STARLINK-1342 4.1 21:50:17 28° ENE 21:50:17 28° ENE 21:51:59 10° ENE
Meteor 2-13 Rocket 4.4 21:44:29 18° S 21:49:09 87° E 21:55:21 10° N
STARLINK-1364 4.1 21:50:37 28° ENE 21:50:37 28° ENE 21:52:20 10° ENE
STARLINK-1368 3.7 21:48:46 39° S 21:49:32 44° SE 21:53:18 10° ENE
STARLINK-1376 4.1 21:50:56 28° ENE 21:50:56 28° ENE 21:52:39 10° ENE
STARLINK-1360 4.1 21:51:15 29° ENE 21:51:15 29° ENE 21:53:00 10° ENE
Cosmos 2263 4.2 21:44:30 10° SSW 21:50:06 81° WNW 21:55:45 10° NNE
STARLINK-1361 4.1 21:51:36 29° ENE 21:51:36 29° ENE 21:53:20 10° ENE
STARLINK-1367 4.0 21:51:50 30° ENE 21:51:50 30° ENE 21:53:41 10° ENE
STARLINK-1366 4.0 21:52:14 30° ENE 21:52:14 30° ENE 21:54:01 10° ENE
Cosmos 1953 3.5 21:47:37 10° NNE 21:51:07 28° ENE 21:51:59 26° E
SPOT 5 3.2 21:48:42 26° S 21:51:46 75° WSW 21:57:09 10° NNW
CENTAUR R/B 3.2 21:44:08 10° NW 21:52:19 84° SW 21:57:55 26° SSE
STARLINK-52 4.0 21:49:57 10° WSW 21:53:03 46° NNW 21:56:11 10° NE
S3M 4.4 21:47:22 10° N 21:53:22 48° ENE 21:56:24 28° SE
STARLINK-1369 3.6 21:52:47 39° S 21:53:43 48° SE 21:57:33 10° ENE
Cosmos 2026 Rocket 4.1 21:48:44 15° SSW 21:54:00 78° W 22:00:25 10° N
Cosmos 1503 Rocket 4.1 21:49:01 10° NNW 21:54:21 69° ENE 21:56:49 32° SE
CARTOSAT-1 4.0 21:54:31 27° SSW 21:56:38 55° W 22:00:54 10° NNW
Cosmos 1271 Rocket 2.6 21:56:17 41° S 21:57:34 78° E 22:01:32 10° NNE
STARLINK-1372 3.5 21:56:48 38° S 21:57:57 52° SE 22:01:48 10° ENE
SL-4 R/B 3.4 21:54:32 10° W 21:59:09 49° NNW 22:03:52 10° NE
ATLAS 3B R/B 3.1 21:52:56 10° NNW 21:59:38 58° NE 22:04:04 23° ESE
Terra 1.8 21:58:22 33° S 22:00:30 83° WSW 22:05:18 10° NNW
STARLINK-1378 3.4 21:59:49 42° S 22:00:44 55° SE 22:04:33 10° ENE
Cosmos 2297 Rocket 4.5 21:58:17 10° N 22:01:17 14° NE 22:04:16 10° ENE
Cosmos 1943 Rocket 3.7 21:58:12 10° WSW 22:03:15 35° NW 22:08:22 10° N
BREEZE-M DEB (TANK) 3.3 21:54:00 10° SW 22:03:19 43° SSE 22:06:46 10° ENE
STARLINK-1379 3.4 22:03:11 44° SSW 22:04:04 58° SE 22:07:53 10° ENE
Cosmos 1553 Rocket 3.9 21:58:14 10° N 22:04:30 79° E 22:07:36 31° SSE
FALCON 9 DEB 3.7 22:02:54 10° WSW 22:06:17 58° NNW 22:09:41 10° NE
STARLINK-1329 3.3 22:06:16 42° SSW 22:07:18 62° SE 22:11:10 10° ENE
Cosmos 1174 3.2 22:06:48 56° SSW 22:07:25 90° ENE 22:11:07 10° NNE
ATLAS CENTAUR R/B 1.6 22:04:21 10° SW 22:08:46 71° NW 22:12:54 10° NNE
Cosmos 1833 4.2 22:03:09 10° NNW 22:08:49 81° WSW 22:11:17 35° SSE
SL-27 R/B 4.1 22:06:08 10° NW 22:09:04 25° W 22:10:06 21° SW
Cosmos 1707 2.6 22:08:16 52° S 22:09:08 77° E 22:13:02 10° NNE
Cosmos 1758 3.3 22:05:17 10° N 22:09:22 87° W 22:10:28 48° S
STARLINK-1235 3.2 22:06:58 10° WNW 22:10:14 57° SW 22:10:14 57° SW
SeaSat 1 3.7 22:07:17 10° NE 22:11:04 23° ESE 22:11:04 23° ESE
NOSS 3-2 (C) 4.3 22:04:32 10° NW 22:12:06 61° WSW 22:16:47 28° S
STARLINK-1362 3.3 22:11:07 35° SW 22:12:35 69° SE 22:16:30 10° ENE
STARLINK-1233 4.4 22:09:15 10° NW 22:13:17 47° NNE 22:15:21 25° E
COSMOS 2487 2.6 22:10:05 10° N 22:13:30 55° ENE 22:13:45 54° E
Cosmos 1354 Rocket 4.0 22:10:52 10° NNW 22:16:13 88° WSW 22:18:14 40° SSE
STARLINK-1373 3.3 22:15:16 33° SW 22:16:56 74° SE 22:20:51 10° ENE
Cosmos 1536 Rocket 3.4 22:16:15 46° S 22:17:30 83° E 22:21:54 10° N
STARLINK-1204 4.3 22:14:14 10° NW 22:18:17 50° NNE 22:20:08 28° E
STARLINK-1390 3.2 22:18:23 37° SW 22:19:47 78° SE 22:23:39 10° ENE
NOSS 3-4 (A) 3.7 22:13:54 10° SW 22:19:47 68° NW 22:26:07 10° NNE
NOSS 3-4 (C) 3.7 22:13:59 10° SW 22:19:53 69° NW 22:26:13 10° NNE
EO 1 Del DPAF 3.9 22:16:28 10° NNE 22:19:51 38° E 22:19:51 38° E
STARLINK-1238 4.2 22:19:12 10° NW 22:23:16 54° NNE 22:24:55 32° E
Cosmos 1656 Rocket 4.1 22:18:59 11° SW 22:24:17 62° WNW 22:29:49 10° NNE
Cosmos 1242 Rocket 4.2 22:22:43 18° WSW 22:24:41 30° WNW 22:27:59 10° N
Cosmos 1544 Rocket 4.3 22:20:51 10° NNW 22:25:00 45° W 22:26:32 31° SW
STARLINK-1365 3.3 22:22:30 22° SW 22:25:00 87° SE 22:29:00 10° NE
Meteor 1-16 Rocket 4.3 22:20:56 10° N 22:26:19 61° ENE 22:28:05 40° SE
Cosmos 2266 Rocket 4.0 22:24:05 37° SSE 22:26:25 61° E 22:32:21 10° NNE
Cosmos 2084 3.4 22:26:10 52° S 22:27:01 66° SE 22:31:27 10° NE
STARLINK-1201 4.1 22:24:10 10° NW 22:28:16 58° NNE 22:29:42 36° E
Cosmos 1655 Rocket 3.9 22:25:20 33° S 22:28:24 86° E 22:34:43 10° N
STARLINK-1206 3.9 22:29:08 10° NW 22:33:16 62° NNE 22:34:29 41° E
Cosmos 2369 Rocket 4.1 22:30:20 10° WSW 22:35:12 29° NW 22:40:04 10° N
STARLINK-1205 3.8 22:34:06 10° NW 22:38:15 66° NNE 22:39:15 47° E
Cosmos 2227 Rocket 4.1 22:35:02 10° N 22:39:24 22° NE 22:43:18 12° E
STARLINK-1338 3.5 22:37:52 28° WSW 22:39:45 74° NNW 22:43:33 10° NE
STARLINK-1218 3.7 22:39:06 10° NW 22:43:15 72° NNE 22:44:04 54° E
Spot 4 3.9 22:42:23 48° SE 22:43:36 67° ENE 22:48:24 10° N
Cosmos 2292 Rocket 3.1 22:44:12 64° NNE 22:44:12 64° NNE 22:46:51 10° N
ATLAS 2AS CENTAUR R/B 3.8 22:40:18 10° WSW 22:48:05 53° NW 22:55:50 10° NNE
STARLINK-1254 3.6 22:44:03 10° NW 22:48:13 77° NNE 22:48:49 62° E
Cosmos 2098 Rocket 4.4 22:45:55 37° SSE 22:49:01 67° E 22:56:23 10° NNE
STARLINK-1371 3.8 22:46:30 18° WSW 22:49:11 64° NNW 22:53:01 10° NE
Cosmos 1908 3.5 22:46:00 10° N 22:49:45 54° E 22:49:45 54° E
Cosmos 2058 Rocket 4.4 22:46:13 10° NNE 22:50:04 28° ENE 22:50:50 26° E
Cosmos 883 Rocket 4.4 22:44:02 10° N 22:50:11 80° E 22:52:19 43° SSE
Cosmos 1606 Rocket 3.8 22:46:52 10° N 22:51:08 54° E 22:51:37 50° ESE
Meteor 2-5 Rocket 4.1 22:51:49 41° SE 22:53:03 48° E 22:58:28 10° NNE
STARLINK-1231 3.5 22:49:01 10° NW 22:53:11 83° NE 22:53:35 71° ESE
STARLINK-1341 3.9 22:50:24 17° WSW 22:53:14 60° NNW 22:57:03 10° NE
ALOS 2 3.3 22:53:44 38° E 22:54:30 41° ENE 22:58:38 10° N
Cosmos 1867 4.4 22:49:32 10° NW 22:54:32 37° WSW 22:55:40 33° SW
KORONAS-FOTON 3.8 22:56:12 69° ENE 22:56:12 69° ENE 22:59:56 10° NNE
Cosmos 1025 Rocket 4.5 22:54:38 23° WSW 22:56:27 32° WNW 23:00:19 10° N
STARLINK-1374 4.0 22:54:13 16° WSW 22:57:09 57° NNW 23:00:57 10° NE
STARLINK-1232 3.4 22:54:02 10° NW 22:58:12 89° NE 22:58:25 81° ESE
CZ-4C R/B 3.6 22:59:36 20° E 22:59:36 20° E 23:02:55 10° ENE
STARLINK-1339 4.1 22:58:04 15° WSW 23:01:07 53° NNW 23:04:53 10° NE
In-Cosmos 22 4.3 22:59:31 38° SW 23:01:28 63° WNW 23:06:43 10° N
STARLINK-1208 3.4 22:58:59 10° WNW 23:03:09 84° SW 23:03:10 84° SSW
Cosmos 1300 4.2 23:01:44 10° NNE 23:05:01 26° ENE 23:05:03 26° ENE
STARLINK-1377 4.3 23:03:44 10° WSW 23:07:34 49° NNW 23:11:24 10° NE
STARLINK-1271 3.5 23:04:00 10° WNW 23:07:58 76° WSW 23:07:58 76° WSW
COSMOS 2455 3.9 23:04:54 10° WSW 23:10:37 44° NW 23:16:23 10° NNE
Nimbus 7 Rocket 4.4 23:04:57 10° NNE 23:11:03 72° ESE 23:12:49 47° S
Cosmos 1674 2.8 23:11:24 67° WNW 23:11:24 67° WNW 23:15:09 10° N
Cosmos 1726 3.4 23:08:18 10° NNW 23:11:40 32° W 23:11:43 32° W
STARLINK-1353 4.5 23:07:54 10° WSW 23:11:43 47° NNW 23:15:32 10° NE
STARLINK-1154 3.7 23:08:58 10° WNW 23:12:44 66° W 23:12:44 66° W
Cosmos 1340 Rocket 3.9 23:09:47 10° NNW 23:13:31 35° W 23:13:48 34° WSW
STARLINK-1375 4.5 23:10:12 10° W 23:13:55 45° NNW 23:17:39 10° NE
Cosmos 1777 Rocket 4.0 23:10:20 10° NNW 23:15:34 73° WSW 23:16:35 57° S
STARLINK-1197 3.9 23:13:57 10° WNW 23:17:30 57° W 23:17:30 57° W
Cosmos 921 Rocket 2.8 23:18:04 77° ESE 23:18:09 77° ESE 23:22:32 10° NNE
Cosmos 2228 2.8 23:13:59 10° N 23:18:14 78° W 23:18:24 76° SW
Thor Agena Rocket 4.2 23:14:08 10° N 23:19:13 50° WNW 23:21:25 31° SW
Cosmos 220 Rocket 3.9 23:20:04 76° SE 23:20:13 77° ESE 23:24:41 10° NNE
RESURS DK-1 3.4 23:20:56 32° W 23:22:10 41° WNW 23:26:07 10° NNE
STARLINK-1198 4.1 23:18:57 10° WNW 23:22:18 50° W 23:22:18 50° W
Timation 2 Rocket 3.9 23:17:28 10° NNW 23:23:41 73° WSW 23:25:18 50° S
Lacrosse 4 Rocket 3.6 23:21:28 10° N 23:24:48 21° NE 23:26:59 15° E
Cosmos 1980 Rocket 4.3 23:25:34 12° E 23:26:01 12° E 23:28:11 10° ENE
BREEZE-M R/B 3.8 23:16:29 10° WSW 23:26:06 90° SSE 23:30:28 10° ENE
Okean 1-7 Rocket 3.5 23:25:56 67° ESE 23:26:11 69° E 23:30:43 10° NNE
Cosmos 1953 4.1 23:24:18 10° NW 23:27:20 21° W 23:27:41 21° W
STARLINK-1199 4.3 23:23:56 10° WNW 23:27:04 44° W 23:27:04 44° W
USA 215 3.9 23:27:59 10° ESE 23:34:18 53° NNE 23:40:37 10° NW
Cosmos 1892 Rocket 3.4 23:34:23 74° WSW 23:34:39 78° W 23:39:01 10° N
Cosmos 1726 Rocket 3.6 23:30:28 10° NNW 23:34:46 64° W 23:34:55 63° WSW
STARLINK-1200 4.4 23:31:13 10° NW 23:35:16 49° NNE 23:36:41 33° E
SL-4 R/B 4.3 23:37:22 11° NNW 23:37:22 11° NNW 23:37:28 10° NNW
Cosmos 1809 Rocket 4.4 23:33:52 47° SSW 23:35:49 83° W 23:42:03 10° N
Meteor 1-24 Rocket 3.5 23:36:46 58° S 23:37:53 87° E 23:43:26 10° N
Helios 1A 3.1 23:38:21 63° E 23:38:33 64° ENE 23:42:41 10° N
ATLAS 5 CENTAUR R/B 3.9 23:36:16 10° W 23:38:58 18° NW 23:40:42 10° N
SL-4 R/B 4.2 23:35:20 10° WNW 23:39:41 32° N 23:44:01 10° ENE
STARLINK-1192 4.3 23:36:11 10° NW 23:40:15 52° NNE 23:41:28 38° E
Cosmos 2315 Rocket 4.4 23:35:37 10° NNW 23:41:36 52° W 23:43:30 38° SW
Nadezhda 2 Rocket 4.4 23:40:15 47° SSW 23:42:08 78° W 23:48:19 10° N
Cosmos 1626 2.4 23:42:49 66° NNW 23:42:49 66° NNW 23:46:06 10° N
SJ 16-02 2.1 23:39:58 10° N 23:44:14 43° ENE 23:44:59 39° E
STARLINK-1244 4.2 23:41:08 10° NW 23:45:14 56° NNE 23:46:13 43° E
Cosmos 2297 Rocket 2.3 23:40:43 10° NNW 23:46:23 72° ENE 23:48:02 46° SE
ATLAS CENTAUR R/B 4.4 23:46:32 10° WNW 23:48:20 12° NW 23:50:06 10° N
Cosmos 2219 3.1 23:43:00 10° NNW 23:48:41 90° WSW 23:50:00 55° SSE
SeaSat 1 3.1 23:44:10 10° NNE 23:48:56 51° WNW 23:50:49 33° WSW
Cosmos 1656 3.7 23:48:16 56° SSE 23:49:16 69° ESE 23:54:51 10° NNE
ATLAS 3B R/B 3.6 23:44:04 10° NW 23:50:01 33° WSW 23:51:18 30° SW
STARLINK-1138 4.0 23:46:06 10° NW 23:50:13 60° NNE 23:51:00 49° ENE
Cosmos 468 Rocket 4.2 23:52:35 50° SE 23:53:02 51° ESE 23:58:00 10° NNE
STARLINK-1143 3.9 23:51:05 10° NW 23:55:13 65° NNE 23:55:48 56° ENE
